This is the latest recevied weather packets stored in our database for station/object NA9VY-8. If no packets are shown the sender has not sent any weather packets the latest 10 day(s).
| Time | Temp. | Humidity | Pressure | Rain* | Wind** | Luminosity | Snow |
|---|---|---|---|---|---|---|---|
| 1778012267 | 16.11° C | 99% | 1010.5 hPa | 0 mm | - | 35 W/m² | - |
| 1778011965 | 16.11° C | 99% | 1010.5 hPa | 0 mm | - | 57 W/m² | - |
| 1778011664 | 16.11° C | 99% | 1010.3 hPa | 0 mm | - | 59 W/m² | - |
| 1778011360 | 16.11° C | 99% | 1010.3 hPa | 0 mm | - | 71 W/m² | - |
| 1778011055 | 16.11° C | 99% | 1010.5 hPa | 0 mm | - | 113 W/m² | - |
| 1778010753 | 16.11° C | 99% | 1010.4 hPa | 0 mm | - | 111 W/m² | - |
| 1778010450 | 15.56° C | 99% | 1010.5 hPa | 0 mm | - | 109 W/m² | - |
| 1778010147 | 16.11° C | 99% | 1011 hPa | 0 mm | - | 109 W/m² | - |
| 1778009842 | 15.56° C | 99% | 1010.7 hPa | 0 mm | - | 65 W/m² | - |
| 1778009540 | 15.56° C | 99% | 1011.1 hPa | 0 mm | - | 78 W/m² | - |
| 1778009239 | 15.56° C | 99% | 1011 hPa | 0 mm | - | 147 W/m² | - |
| 1778008936 | 15.56° C | 99% | 1011 hPa | 0 mm | - | 119 W/m² | - |
| 1778008634 | 15.56° C | 99% | 1011 hPa | 0 mm | - | 69 W/m² | - |
| 1778008332 | 15.56° C | 99% | 1011.2 hPa | 0 mm | - | 160 W/m² | - |
| 1778008028 | 15.56° C | 99% | 1011.3 hPa | 0 mm | - | 194 W/m² | - |
| 1778007727 | 15° C | 99% | 1011.3 hPa | 0 mm | - | 110 W/m² | - |
| 1778007425 | 15° C | 99% | 1011.3 hPa | 0 mm | - | 69 W/m² | - |
| 1778007121 | 15° C | 99% | 1011.1 hPa | 0 mm | - | 49 W/m² | - |
| 1778006817 | 15.56° C | 99% | 1011.3 hPa | 0 mm | - | 109 W/m² | - |
| 1778006515 | 15° C | 99% | 1011.3 hPa | 0 mm | - | 116 W/m² | - |
| 1778006211 | 15° C | 99% | 1011.3 hPa | 0 mm | - | 135 W/m² | - |
| 1778005909 | 15° C | 99% | 1011.2 hPa | 0 mm | - | 119 W/m² | - |
| 1778005605 | 15° C | 99% | 1011.4 hPa | 0 mm | - | 114 W/m² | - |
| 1778005302 | 15° C | 99% | 1011.6 hPa | 0 mm | - | 97 W/m² | - |
| 1778004998 | 15° C | 99% | 1011.5 hPa | 0 mm | - | 62 W/m² | - |
* Rain latest hour (hover to see other rain measurements)
** Current wind speed in m/s (hover to see current wind gust speed)